Back to catalog

FENGYUN 1C DEB

AlivePO
NORAD 32361·DEBRIS·🇨🇳 China

Launched May 10, 1999 from Taiyuan Satellite Launch Center

Loading…

Next Passes (next 24 hours)

TLE

AgingSource: Space-Track

Epoch: Sep 11, 2026, 03:59 UTC

1 32361U 99025CZE 26254.16599691  .00003767  00000-0  88122-3 0  9992
2 32361  98.8432 333.1502 0041795 297.8633  61.8331 14.54750361  2990

Track FENGYUN 1C DEB in real time with AllMySat

Download on the App Store